Temp
3 3 3 2 2 2 2 2 2 3 3 3 3 2 3 3 3 3 3 2 2 2
3 3 2 2 2 1 1 1 2 2 2 3 3 2 2 2 2 2 2 2 2 2
2 2 1 1 1 1 1 1 1 1 1 1 1 1 1 1 1 1 2 1 1 2
2 2 1 1 1 1 0 0 0 0 0 0 0 0 -0 -0 0 -0 0 1 0 1
2 1 1 1 0 0 0 0 -0 -0 -0 -0 -1 -1 -2 -3 -2 -3 -3 -2 -2 -1
1 0 -0 -0 -0 -1 -1 -1 -1 -2 -2 -3 -3 -3 -4 -5 -5 -5 -5 -4 -4 -4
-0 -1 -1 -1 -1 -2 -2 -3 -3 -4 -5 -6 -7 -7 -7 -6 -6 -6 -6 -6 -6 -6
-1 -1 -1 -1 -2 -2 -3 -4 -5 -6 -6 -8 -8 -8 -7 -7 -7 -7 -7 -7 -7 -6
-1 -1 -1 -2 -3 -3 -4 -6 -7 -8 -9 -10 -10 -10 -9 -8 -8 -8 -8 -8 -8 -7
-1 -2 -3 -4 -4 -6 -7 -8 -9 -11 -12 -13 -13 -12 -11 -11 -11 -11 -11 -10 -10 -9
-3 -4 -4 -5 -7 -8 -9 -11 -12 -13 -14 -15 -15 -14 -13 -13 -12 -13 -13 -12 -12 -11
-5 -5 -6 -8 -9 -11 -12 -13 -13 -15 -16 -16 -16 -16 -15 -14 -14 -14 -14 -13 -13 -12
-7 -8 -10 -11 -12 -12 -13 -14 -16 -17 -17 -17 -17 -16 -16 -14 -14 -14 -14 -13 -13 -13
-9 -10 -11 -12 -13 -14 -15 -17 -17 -17 -17 -18 -16 -16 -16 -14 -14 -14 -13 -13 -13 -12
Height
846 846 846 846 847 845 843 843 845 843 838 838 838 836 830 827 827 826 826 826 824 821
848 848 848 849 848 847 846 844 844 844 839 836 834 833 831 827 824 825 824 823 822 820
850 851 850 850 848 846 845 844 842 841 840 835 833 830 831 827 824 823 820 819 818 816
851 850 849 848 846 846 846 844 842 839 836 833 831 827 828 824 822 819 816 814 812 811
850 849 848 848 847 846 843 841 839 836 833 830 827 824 822 820 817 813 812 808 808 805
848 848 847 845 844 842 840 838 835 833 831 827 825 823 820 815 812 808 807 804 802 798
846 846 845 843 841 839 837 834 831 828 825 822 819 817 814 811 807 804 799 797 795 791
844 843 842 840 837 835 833 830 827 824 820 818 816 813 810 807 802 797 792 789 786 783
841 839 837 835 833 831 828 825 822 819 816 813 811 809 806 802 796 791 786 779 775 774
836 834 832 830 828 826 823 820 816 813 809 806 803 801 798 795 790 784 779 775 771 767
832 830 828 826 824 821 818 815 811 807 803 800 797 794 790 786 781 776 772 769 766 762
827 826 824 822 820 817 813 809 805 802 798 794 789 786 782 779 773 768 764 762 759 756
822 821 819 817 814 811 808 803 800 796 793 788 782 778 776 773 768 762 757 754 751 748
818 816 814 811 809 805 801 798 794 790 786 782 777 772 770 767 762 756 749 744 741 738
Wind_Speed
22 23 23 22 22 23 23 23 23 23 23 24 25 25 23 22 21 20 18 20 20 20
18 19 19 19 19 20 20 21 21 23 24 23 24 26 27 26 25 22 22 21 20 21
15 15 15 16 18 20 20 22 23 24 24 25 25 25 27 27 27 28 27 26 26 24
11 13 14 16 17 19 20 21 23 24 26 28 29 29 30 30 31 31 32 31 29 29
8 11 15 17 18 20 22 23 24 27 29 31 33 34 35 36 35 34 34 33 33 33
6 9 13 17 20 22 23 24 26 29 31 34 35 37 37 36 36 34 33 34 32 32
6 10 14 19 22 24 25 29 33 36 37 36 34 30 29 28 29 30 30 31 30 31
8 12 17 21 24 26 29 32 34 35 37 34 30 25 26 27 29 30 32 32 31 30
11 16 20 23 26 30 33 34 36 35 33 31 25 25 28 29 32 32 32 34 34 33
15 18 21 24 28 31 33 35 35 33 30 30 28 25 28 30 32 33 34 33 33 33
16 18 22 26 28 30 31 33 33 34 33 28 28 29 30 30 31 30 30 30 30 30
15 19 21 22 25 27 30 32 33 27 29 31 33 28 29 30 29 29 29 29 27 27
16 17 19 21 23 25 26 30 28 29 30 32 33 29 27 27 28 29 28 28 28 27
13 15 17 19 20 23 26 27 30 30 30 30 30 32 27 28 29 28 30 29 27 27
Wind_Direction
63 59 55 49 40 37 33 26 15 14 16 13 9 7 11 13 11 4 350 333 322 311
59 53 47 39 32 28 20 15 7 2 2 3 0 356 353 355 356 350 347 343 336 328
56 48 39 27 19 13 7 0 356 352 351 352 351 349 345 343 342 338 335 332 328 325
44 34 24 15 8 359 352 349 346 345 343 342 340 339 335 334 331 329 325 323 321 316
17 7 3 359 352 346 341 339 338 336 334 332 331 330 329 327 325 323 319 315 312 307
349 346 346 344 340 337 333 331 330 328 327 325 323 323 322 322 319 316 312 308 305 301
322 330 333 334 332 331 331 330 328 327 325 324 323 320 319 316 312 307 302 298 294 293
302 319 323 323 323 324 325 324 323 321 320 320 318 315 313 309 303 299 295 292 289 288
298 310 315 316 319 320 321 322 322 321 319 318 315 310 307 303 300 296 293 291 290 289
297 304 311 316 318 321 322 322 321 320 318 314 312 312 308 303 299 294 290 289 289 290
293 302 310 314 317 319 320 320 320 318 319 315 310 311 308 305 300 296 292 290 290 288
290 303 308 311 315 319 319 319 319 316 312 313 311 312 311 308 302 297 295 294 292 290
295 301 307 313 315 316 317 315 314 310 315 318 312 318 312 309 302 297 297 296 293 291
291 301 307 309 313 315 317 315 316 316 317 315 321 322 311 308 304 298 294 291 292 291